Zurück zum Katalog

CONTOUR

AktivWissenschaftHEO
NORAD 27457·PAYLOAD·🇺🇸 United States

Gestartet Jul 3, 2002 von Cape Canaveral Space Force Station

Loading…

Nächste Überflüge (nächste 24 Stunden)

TLE

VeraltetSource: Space-Track

Epoche: Aug 6, 2002, 16:59 UTC

1 27457U 02034A   02218.70833333 +.00000000 +00000-0 +00000-0 0  9997
2 27457 030.5521 190.6101 8915936 340.4630 356.7346 00.57921679000002

Verfolge CONTOUR in Echtzeit mit AllMySat

Download on the App Store